[TLELIST] Archives

 

[TLELIST] Current TLEs

May 15th 2025 PDT

HST 1 20580U 90037B 25134.73891115 .00006617 00000-0 24958-3 0 9995 2 20580 28.4685 271.5829 0002903 78.7476 281.3445 15.24968911727578 ISS (ZARYA) 1 25544U 98067A 25135.34190934 .00008105 00000-0 15227-3 0 9993 2 25544 51.6360 109.7771 0002557 112.3430 38.3717 15.49538266510068 CXO 1 25867U 99040B 25137.70059221 .00000763 00000-0 00000-0 0 9990 2 25867 48.8168 131.2054 8469154 308.9956 359.9300 0.37800888 15825 ...Continue Reading

[TLELIST] Current TLEs

May 14th 2025 PDT

HST 1 20580U 90037B 25134.08447312 .00006524 00000-0 24601-3 0 9991 2 20580 28.4685 276.0162 0002890 72.6806 287.4104 15.24960776727731 ISS (ZARYA) 1 25544U 98067A 25134.15405506 .00008594 00000-0 16106-3 0 9994 2 25544 51.6345 115.6637 0002291 108.2504 251.8734 15.49518201509885 CXO 1 25867U 99040B 25135.05626942 .00000692 00000-0 00000+0 0 9996 2 25867 48.7613 131.3158 8472963 308.9766 359.8810 0.37804079 26975 ...Continue Reading

[TLELIST] Current TLEs

May 14th 2025 PDT

HST 1 20580U 90037B 25134.08447312 .00006524 00000-0 24601-3 0 9991 2 20580 28.4685 276.0162 0002890 72.6806 287.4104 15.24960776727731 ISS (ZARYA) 1 25544U 98067A 25134.15405506 .00008594 00000-0 16106-3 0 9994 2 25544 51.6345 115.6637 0002291 108.2504 251.8734 15.49518201509885 CXO 1 25867U 99040B 25135.05626942 .00000692 00000-0 00000+0 0 9996 2 25867 48.7613 131.3158 8472963 308.9766 359.8810 0.37804079 26975 ...Continue Reading

[TLELIST] Current TLEs

May 13th 2025 PDT

HST 1 20580U 90037B 25132.71014172 .00006873 00000-0 25974-3 0 9994 2 20580 28.4684 285.3269 0002843 59.3499 300.7376 15.24943879727262 ISS (ZARYA) 1 25544U 98067A 25133.18664600 .00008383 00000-0 15740-3 0 9997 2 25544 51.6343 120.4533 0002335 105.7353 254.3893 15.49501655509738 CXO 1 25867U 99040B 25135.05626942 .00000692 00000-0 00000+0 0 9996 2 25867 48.7613 131.3158 8472963 308.9766 359.8810 0.37804079 26975 ...Continue Reading

[TLELIST] Current TLEs

May 12th 2025 PDT

HST 1 20580U 90037B 25131.79391198 .00006717 00000-0 25377-3 0 9991 2 20580 28.4682 291.5340 0002823 50.1461 309.9381 15.24931478727129 ISS (ZARYA) 1 25544U 98067A 25132.37369382 .00009778 00000-0 18229-3 0 9990 2 25544 51.6373 124.4732 0002524 108.2420 34.0962 15.49490177509601 CXO 1 25867U 99040B 25132.41211790 .00000614 00000-0 00000-0 0 9999 2 25867 48.7216 131.4145 8476609 308.9568 359.8615 0.37808717 15808 ...Continue Reading

[TLELIST] Current TLEs

May 11th 2025 PDT

HST 1 20580U 90037B 25130.74678308 .00006916 00000-0 26164-3 0 9992 2 20580 28.4679 298.6268 0002745 39.7983 320.2813 15.24916582726963 ISS (ZARYA) 1 25544U 98067A 25131.32084234 .00008972 00000-0 16809-3 0 9991 2 25544 51.6374 129.6845 0002568 102.5783 282.9354 15.49465690509444 CXO 1 25867U 99040B 25132.41211790 .00000614 00000-0 00000-0 0 9999 2 25867 48.7216 131.4145 8476609 308.9568 359.8615 0.37808717 15808 ...Continue Reading

[TLELIST] Current TLEs

May 10th 2025 PDT

HST 1 20580U 90037B 25129.69964448 .00006667 00000-0 25207-3 0 9997 2 20580 28.4677 305.7208 0002729 30.1886 329.8866 15.24901556726805 ISS (ZARYA) 1 25544U 98067A 25129.52987991 .00008832 00000-0 16579-3 0 9991 2 25544 51.6373 138.5518 0002579 96.2220 12.6743 15.49431663509168 CXO 1 25867U 99040B 25132.41211790 .00000614 00000-0 00000-0 0 9999 2 25867 48.7216 131.4145 8476609 308.9568 359.8615 0.37808717 15808 ...Continue Reading

[TLELIST] Current TLEs

May 9th 2025 PDT

HST 1 20580U 90037B 25128.78338933 .00007115 00000-0 26961-3 0 9997 2 20580 28.4677 311.9280 0002659 22.0567 338.0141 15.24890481726927 ISS (ZARYA) 1 25544U 98067A 25129.18790686 .00009438 00000-0 17663-3 0 9994 2 25544 51.6342 140.2502 0002302 92.7015 267.4237 15.49425405509114 CXO 1 25867U 99040B 25129.76795735 .00000570 00000-0 00000+0 0 9999 2 25867 48.6962 131.5006 8481473 308.9436 359.8594 0.37812153 26954 ...Continue Reading

[TLELIST] Current TLEs

May 8th 2025 PDT

HST 1 20580U 90037B 25127.80167920 .00006329 00000-0 23907-3 0 9998 2 20580 28.4680 318.5778 0002536 12.1306 347.9349 15.24876424726516 ISS (ZARYA) 1 25544U 98067A 25128.22043911 .00007740 00000-0 14644-3 0 9990 2 25544 51.6344 145.0396 0002287 89.4742 270.6509 15.49406013508966 CXO 1 25867U 99040B 25129.76795735 .00000570 00000-0 00000+0 0 9999 2 25867 48.6962 131.5006 8481473 308.9436 359.8594 0.37812153 26954 ...Continue Reading

[TLELIST] Current TLEs

May 7th 2025 PDT

HST 1 20580U 90037B 25126.81996045 .00007392 00000-0 28065-3 0 9997 2 20580 28.4683 325.2271 0002330 0.9987 359.0612 15.24864454726364 ISS (ZARYA) 1 25544U 98067A 25127.18846187 .00009102 00000-0 17086-3 0 9997 2 25544 51.6346 150.1483 0002326 85.5682 274.5572 15.49388906508802 CXO 1 25867U 99040B 25129.76795735 .00000570 00000-0 00000+0 0 9999 2 25867 48.6962 131.5006 8481473 308.9436 359.8594 0.37812153 26954 ...Continue Reading
  • This mailing list is a public mailing list - anyone may join or leave, at any time.
  • This mailing list is announce-only.

International Space Station (ISS) / Hubble Space Telescope (HST) / Chandra X-Ray Observatory Orbital Data via EMAIL

Privacy Policy:

Private list